Starlink 11413

operational
NORAD ID: 62593 Int'l Des: 2025-008 Owner: SPXS Country: US Constellation: starlink
LEOCIRCULAR

About Starlink 11413

Description loading...

Live Position

Loading 3D Globe...

Upcoming Passes

Altitude History

Altitude vs Time

uPlot chart will show altitude changes over time

Two-Line Element Set

1 62593U 25008G 25351.11154497 .00169653 00000-0 12949-2 0 9995
2 62593 43.0032 264.2032 0003136 253.8528 106.1995 15.70909829 54194
Epoch: Dec 17, 2025 • Age: 27 hours

Current Status

Altitude 355.0 km
Velocity 7.70 km/s
Sub-Earth Point 5.84°N, 83.79°E
Launch Date Jan 13, 2025
Age 0.9 years
Type internet

Technical Details

Classification Payload
Mass 960.00 kg
Dry Mass 910.00 kg
Total Mass 960.00 kg
Length 0.30 m
Diameter 4.10 m
Span 29.00 m
Shape Box + pan
Manufacturer SPXS
Bus Type Starlink V2MD
Phase Status In Orbit
Owner/State SPXS/US

Large Constellations

Loading constellations...